Flag for Canada Weather past 2 weeks in Paradise, Newfoundland and Labrador, Canada

Now
21 °F

Light snow. Low clouds.


Feels Like: 12 °F
Forecast: 20 / 24 °F
Wind: 8 mph from North

Location: St. John's

Current Time: Feb 27, 2015 at 9:04:48 AM

Latest Report: Feb 27, 2015 at 8:30 AM


Visibility: 3 mi

Pressure: 29.81 "Hg

Humidity: 93%

Dew point: 19 °F

Location of ParadiseLocation

Historic Weather in Paradise — Graph

°F

Paradise temperature yesterday

Maximum temperature yesterday: 34 °F (at 5:30 AM)
Minimum temperature yesterday: 23 °F (at 6:30 PM)
Average temperature yesterday: 27 °F

Past Weeks' High & Low Weather Summary

 TemperatureHumidityPressure
High45 °F (Feb 20, 8:30 AM)100% (Feb 12, 9:30 AM)30.55 "Hg (Feb 12, 9:30 AM)
Low9 °F (Feb 25, 12:30 AM)55% (Feb 16, 2:30 PM)28.57 "Hg (Feb 13, 9:30 PM)
Average26 °F86%29.69 "Hg
* Reported Feb 12 7:30 AM — Feb 27 7:30 AM, Paradise, Weather by CustomWeather, © 2015

Note: Actual official high and low records may vary slightly from our data, if they occured in-between our weather recording intervals... More about our weather records

Advertising

Paradise weather history for previous 24 hours

 ConditionsComfort  
Time TempWeatherWind HumidityBarometerVisibility
7:30 AM
Fri, Feb 27
21 °FLight snow. Overcast.6 mph93%29.81 "Hg2 mi
6:30 AM21 °FLight snow. Overcast.6 mph93%29.80 "Hg6 mi
5:30 AM21 °FLight snow. Overcast.5 mph93%29.78 "Hg10 mi
4:30 AM21 °FLight snow. Overcast.2 mph93%29.79 "Hg3 mi
3:30 AM21 °FLight snow. Overcast.2 mph93%29.79 "Hg15 mi
2:30 AM21 °FLight snow. Overcast.3 mph93%29.81 "Hg12 mi
1:30 AM21 °FLight snow. Overcast.6 mph93%29.87 "Hg10 mi
12:30 AM23 °FLight snow. Overcast.6 mph86%29.89 "Hg15 mi
11:30 PM
Thu, Feb 26
23 °FLight snow. Overcast.6 mph80%29.92 "Hg15 mi
10:30 PM23 °FOvercast.7 mph74%29.93 "Hg15 mi
9:30 PM23 °FPassing clouds.14 mph74%29.94 "Hg15 mi
8:30 PM23 °FPassing clouds.15 mph68%29.92 "Hg15 mi
7:30 PM23 °FPassing clouds.14 mph74%29.91 "Hg15 mi
6:30 PM23 °FPartly cloudy.17 mph74%29.88 "Hg15 mi
5:30 PM25 °FPartly cloudy.14 mph69%29.88 "Hg15 mi
4:30 PM27 °FScattered clouds.28 mph69%29.83 "Hg15 mi
3:30 PM28 °FScattered clouds.25 mph64%29.78 "Hg15 mi
2:30 PM28 °FScattered clouds.37 mph64%29.73 "Hg15 mi
1:30 PM28 °FScattered clouds.38 mph69%29.70 "Hg15 mi
12:30 PM28 °FScattered clouds.35 mph69%29.65 "Hg15 mi
Weather by CustomWeather, © 2015

See weather overviewHow to use our weather pages